Regional Weather Roundup
Issued by NWS

Home | Current Version | Previous Version | Text Only | Print | Product List | Glossary On
Versions: 1 2 3 4 5 6 7 8 9 10 11 12 13 14 15 16 17 18 19 20 21 22 23 24 25 26 27 28 29 30 31 32 33 34 35 36 37 38 39 40 41 42 43 44 45 46 47 48 49 50
000
ASUS44 KOUN 241200
RWROK

WEATHER ROUNDUP FOR OKLAHOMA
NATIONAL WEATHER SERVICE NORMAN OK
700 AM CDT MON APR 24 2017

NOTE: "FAIR" INDICATES FEW OR NO CLOUDS BELOW 12,000 FEET WITH NO
      SIGNIFICANT WEATHER AND/OR OBSTRUCTIONS TO VISIBILITY.

OKZ001>007-009>012-014-015-017-241300-
NORTHWEST OKLAHOMA AND THE PANHANDLE

CITY           SKY/WX    TMP DP  RH WIND       PRES   REMARKS
GAGE           CLEAR     52  37  56 S22G33    29.77F
6HR MIN TEMP:  51; 6HR MAX TEMP:  55;

GUYMON         CLOUDY    52  36  54 S22       29.68F
ENID/WOODRING  PTCLDY    41  41 100 SE9       29.85F
$$

OKZ016-021>023-033>039-044-045-241300-
SOUTHWEST OKLAHOMA

CITY           SKY/WX    TMP DP  RH WIND       PRES   REMARKS
LAWTON/REGL    CLEAR     46  42  86 SE5       29.91S
6HR MIN TEMP:  45; 6HR MAX TEMP:  48;

LAWTON/FT SILL CLEAR     45  41  85 SE3       29.89F
FREDERICK      CLEAR     48  41  76 SE5       29.87S
CLINTON        CLEAR     51  38  60 S17       29.86F
HOBART         CLEAR     49  41  74 S9        29.88S
ALTUS AFB      CLEAR     44  38  80 SE5       29.87F
$$

OKZ018>020-024>031-241300-
CENTRAL OKLAHOMA

CITY           SKY/WX    TMP DP  RH WIND       PRES   REMARKS
OKLAHOMA CITY  PTCLDY    44  39  82 SE7       29.91F
6HR MIN TEMP:  42; 6HR MAX TEMP:  47;

OKC/WILEY POST CLEAR     50  40  68 S14       29.90F
OKC/TINKER AFB CLEAR     47  40  77 S13       29.91F
STILLWATER     CLEAR     46  39  76 S7        29.90F
GUTHRIE        CLEAR     50  39  66 S10       29.90F
$$

OKZ008-013-054>072-241300-
NORTHEAST OKLAHOMA

CITY           SKY/WX    TMP DP  RH WIND       PRES   REMARKS
TULSA          PTCLDY    43  40  89 S3        29.94S
6HR MIN TEMP:  42; 6HR MAX TEMP:  50;

TULSA/JONES    CLEAR     42  40  92 CALM      29.96S FOG
PONCA CITY     CLEAR     50  38  63 S12       29.89F
BARTLESVILLE   CLEAR     37  36  96 CALM      29.95R
MUSKOGEE       CLEAR     41  41 100 S5        29.99R
$$

OKZ032-040>043-046>053-073>077-241300-
SOUTH CENTRAL/SOUTHEAST OKLAHOMA

CITY           SKY/WX    TMP DP  RH WIND       PRES   REMARKS
MCALESTER      CLEAR     42  40  92 CALM      29.98R
$$





USA.gov is the U.S. government's official web portal to all federal, state and local government web resources and services.